AAL501 MBPV-KMIA

Flight info

Callsign AAL501
Flight time 1h 25m
Altitude 32000
Route MICAS DCT FODED Y308 MADIZ VIICE2
Aircraft B738/M-SDE2E3FGHIRWXY/LB1

Departure

Time 2026-04-26 15:33
Airport Providenciales International Airport (MBPV)

Arrival

Time 2026-04-26 16:59
Airport Miami International Airport (KMIA)
Time Latitude Longitude Altitude Speed Heading
2026-04-26 15:24 21.77572 -72.27193 31 ft 0 kts 35°
2026-04-26 15:26 21.77566 -72.27198 29 ft 4 kts 37°
2026-04-26 15:26 21.77543 -72.27213 29 ft 4 kts 35°
2026-04-26 15:26 21.77523 -72.27232 29 ft 4 kts 58°
2026-04-26 15:27 21.77517 -72.27253 29 ft 1 kts 94°
2026-04-26 15:29 21.77517 -72.27252 29 ft 1 kts 94°
2026-04-26 15:30 21.77508 -72.27113 28 ft 18 kts 99°
2026-04-26 15:30 21.77391 -72.27053 28 ft 22 kts 137°
2026-04-26 15:30 21.77370 -72.26883 27 ft 26 kts 91°
2026-04-26 15:31 21.77363 -72.26668 24 ft 31 kts 92°
2026-04-26 15:31 21.77339 -72.26144 20 ft 39 kts 93°
2026-04-26 15:31 21.77324 -72.25846 19 ft 41 kts 92°
2026-04-26 15:32 21.77343 -72.25571 17 ft 14 kts 53°
2026-04-26 15:32 21.77307 -72.25568 17 ft 8 kts 274°
2026-04-26 15:32 21.77308 -72.25584 18 ft 7 kts 272°
2026-04-26 15:33 21.77322 -72.25890 19 ft 76 kts 273°
2026-04-26 15:33 21.77363 -72.26704 24 ft 139 kts 273°
2026-04-26 15:33 21.77422 -72.27889 311 ft 165 kts 272°
2026-04-26 15:33 21.77535 -72.29134 1003 ft 171 kts 282°
2026-04-26 15:34 21.78141 -72.30309 1341 ft 202 kts 317°
2026-04-26 15:34 21.79406 -72.31131 1638 ft 226 kts 340°
2026-04-26 15:34 21.81056 -72.31431 1761 ft 258 kts 359°
2026-04-26 15:34 21.82906 -72.31439 2320 ft 269 kts 358°
2026-04-26 15:35 21.84728 -72.31835 3140 ft 268 kts 338°
2026-04-26 15:35 21.86465 -72.32591 3953 ft 270 kts 337°
2026-04-26 15:35 21.88222 -72.33349 4719 ft 274 kts 337°
2026-04-26 15:35 21.89915 -72.34296 5468 ft 276 kts 319°
2026-04-26 15:36 21.91247 -72.35769 6284 ft 275 kts 307°
2026-04-26 15:36 21.92361 -72.37456 6996 ft 277 kts 302°
2026-04-26 15:36 21.93398 -72.39220 7702 ft 280 kts 300°
2026-04-26 15:36 21.94425 -72.41007 8422 ft 282 kts 300°
2026-04-26 15:37 21.95466 -72.42816 9163 ft 284 kts 300°
2026-04-26 15:37 21.96518 -72.44629 9893 ft 287 kts 300°
2026-04-26 15:37 21.97593 -72.46471 10374 ft 298 kts 300°
2026-04-26 15:37 21.98741 -72.48430 10526 ft 320 kts 300°
2026-04-26 15:38 21.99975 -72.50525 10680 ft 341 kts 301°
2026-04-26 15:38 22.01281 -72.52734 10839 ft 359 kts 301°
2026-04-26 15:38 22.02645 -72.55035 11215 ft 367 kts 301°
2026-04-26 15:38 22.04030 -72.57364 11790 ft 370 kts 301°
2026-04-26 15:39 22.05421 -72.59699 12413 ft 371 kts 301°
2026-04-26 15:39 22.06822 -72.62052 13034 ft 374 kts 301°
2026-04-26 15:39 22.08212 -72.64389 13619 ft 377 kts 300°
2026-04-26 15:39 22.08693 -72.65197 13812 ft 378 kts 300°
2026-04-26 15:40 22.11067 -72.69189 14718 ft 382 kts 300°
2026-04-26 15:40 22.12506 -72.71611 15300 ft 385 kts 300°
2026-04-26 15:40 22.13954 -72.74049 15863 ft 387 kts 300°
2026-04-26 15:40 22.15412 -72.76505 16420 ft 390 kts 300°
2026-04-26 15:41 22.16880 -72.78978 16965 ft 393 kts 300°
2026-04-26 15:41 22.18358 -72.81471 17501 ft 396 kts 300°
2026-04-26 15:41 22.19848 -72.83986 18021 ft 399 kts 300°
2026-04-26 15:41 22.21349 -72.86518 18496 ft 402 kts 300°
2026-04-26 15:42 22.22859 -72.89068 18974 ft 404 kts 300°
2026-04-26 15:42 22.24373 -72.91625 19463 ft 405 kts 300°
2026-04-26 15:42 22.25891 -72.94191 19942 ft 406 kts 300°
2026-04-26 15:42 22.27415 -72.96766 20412 ft 408 kts 300°
2026-04-26 15:43 22.28946 -72.99356 20859 ft 410 kts 300°
2026-04-26 15:43 22.30482 -73.01958 21303 ft 412 kts 300°
2026-04-26 15:43 22.33579 -73.07204 22163 ft 416 kts 300°
2026-04-26 15:44 22.35136 -73.09843 22581 ft 418 kts 300°
2026-04-26 15:44 22.38274 -73.15166 23384 ft 422 kts 300°
2026-04-26 15:44 22.39853 -73.17847 23726 ft 424 kts 300°
2026-04-26 15:45 22.43032 -73.23247 24360 ft 427 kts 300°
2026-04-26 15:45 22.44629 -73.25962 24669 ft 429 kts 300°
2026-04-26 15:46 22.47819 -73.31390 25260 ft 433 kts 300°
2026-04-26 15:46 22.49437 -73.34146 25523 ft 435 kts 300°
2026-04-26 15:46 22.51060 -73.36912 25822 ft 437 kts 300°
2026-04-26 15:46 22.51612 -73.37852 25916 ft 437 kts 300°
2026-04-26 15:47 22.54323 -73.42476 26396 ft 439 kts 300°
2026-04-26 15:47 22.57615 -73.48095 26770 ft 447 kts 301°
2026-04-26 15:47 22.59287 -73.50952 26973 ft 450 kts 301°
2026-04-26 15:48 22.60962 -73.53814 27291 ft 450 kts 301°
2026-04-26 15:48 22.62069 -73.55707 27540 ft 449 kts 301°
2026-04-26 15:48 22.63735 -73.58557 27937 ft 447 kts 301°
2026-04-26 15:48 22.65395 -73.61397 28340 ft 446 kts 301°
2026-04-26 15:49 22.67051 -73.64232 28719 ft 445 kts 300°
2026-04-26 15:49 22.68702 -73.67061 29061 ft 445 kts 300°
2026-04-26 15:49 22.70352 -73.69890 29460 ft 443 kts 300°
2026-04-26 15:49 22.71995 -73.72708 29872 ft 442 kts 300°
2026-04-26 15:50 22.73633 -73.75521 30236 ft 441 kts 300°
2026-04-26 15:50 22.75265 -73.78324 30617 ft 438 kts 300°
2026-04-26 15:50 22.76884 -73.81105 31075 ft 434 kts 300°
2026-04-26 15:50 22.78486 -73.83858 31560 ft 429 kts 300°
2026-04-26 15:51 22.80068 -73.86578 31968 ft 427 kts 300°
2026-04-26 15:51 22.83253 -73.92064 31991 ft 431 kts 299°
2026-04-26 15:52 22.86429 -73.97537 31987 ft 425 kts 299°
2026-04-26 15:52 22.89548 -74.02918 32005 ft 424 kts 299°
2026-04-26 15:53 22.92682 -74.08331 31995 ft 424 kts 299°
2026-04-26 15:53 22.95886 -74.13704 31996 ft 426 kts 301°
2026-04-26 15:54 22.99048 -74.19137 31997 ft 426 kts 298°
2026-04-26 15:54 23.02057 -74.24708 32007 ft 429 kts 299°
2026-04-26 15:55 23.05255 -74.30212 32007 ft 432 kts 300°
2026-04-26 15:55 23.08485 -74.35741 32003 ft 434 kts 300°
2026-04-26 15:56 23.11704 -74.41304 32000 ft 435 kts 300°
2026-04-26 15:56 23.14910 -74.46879 31998 ft 435 kts 300°
2026-04-26 15:57 23.18087 -74.52414 31998 ft 434 kts 300°
2026-04-26 15:57 23.21272 -74.57968 31998 ft 432 kts 300°
2026-04-26 15:58 23.24445 -74.63508 31999 ft 431 kts 299°
2026-04-26 15:58 23.27604 -74.69028 31999 ft 429 kts 299°
2026-04-26 15:59 23.30750 -74.74533 32000 ft 428 kts 299°
2026-04-26 15:59 23.33893 -74.80037 31994 ft 429 kts 299°
2026-04-26 16:00 23.37043 -74.85560 32009 ft 430 kts 299°
2026-04-26 16:00 23.39949 -74.91252 31990 ft 430 kts 289°
2026-04-26 16:01 23.41838 -74.97419 32009 ft 431 kts 286°
2026-04-26 16:01 23.43687 -75.03640 31996 ft 433 kts 286°
2026-04-26 16:02 23.45562 -75.09876 32005 ft 434 kts 287°
2026-04-26 16:02 23.47455 -75.16118 32007 ft 434 kts 287°
2026-04-26 16:03 23.49346 -75.22346 31996 ft 433 kts 287°
2026-04-26 16:03 23.51233 -75.28566 31996 ft 431 kts 287°
2026-04-26 16:04 23.53109 -75.34762 32005 ft 430 kts 287°
2026-04-26 16:04 23.54975 -75.40937 32004 ft 428 kts 287°
2026-04-26 16:05 23.56834 -75.47096 31998 ft 427 kts 287°
2026-04-26 16:05 23.58671 -75.53196 32006 ft 426 kts 287°
2026-04-26 16:06 23.60514 -75.59324 32007 ft 425 kts 287°
2026-04-26 16:06 23.62352 -75.65446 32004 ft 425 kts 287°
2026-04-26 16:07 23.64187 -75.71564 32006 ft 425 kts 287°
2026-04-26 16:07 23.66019 -75.77686 32004 ft 425 kts 287°
2026-04-26 16:08 23.67850 -75.83813 31997 ft 425 kts 287°
2026-04-26 16:08 23.69678 -75.89939 31998 ft 424 kts 287°
2026-04-26 16:09 23.71502 -75.96063 32006 ft 424 kts 287°
2026-04-26 16:09 23.73323 -76.02184 32001 ft 424 kts 287°
2026-04-26 16:10 23.75139 -76.08300 32029 ft 424 kts 286°
2026-04-26 16:10 23.76957 -76.14432 32023 ft 425 kts 286°
2026-04-26 16:11 23.78775 -76.20575 32003 ft 425 kts 287°
2026-04-26 16:11 23.80592 -76.26724 32003 ft 425 kts 287°
2026-04-26 16:12 23.82406 -76.32872 32001 ft 425 kts 287°
2026-04-26 16:12 23.85123 -76.42100 32002 ft 425 kts 286°
2026-04-26 16:13 23.86929 -76.48246 32004 ft 425 kts 286°
2026-04-26 16:13 23.88732 -76.54391 32012 ft 424 kts 287°
2026-04-26 16:14 23.90527 -76.60520 32001 ft 423 kts 287°
2026-04-26 16:15 23.93193 -76.69642 32001 ft 421 kts 287°
2026-04-26 16:15 23.94981 -76.75770 32007 ft 420 kts 287°
2026-04-26 16:16 23.97621 -76.84840 32002 ft 419 kts 287°
2026-04-26 16:16 23.99384 -76.90909 32012 ft 418 kts 287°
2026-04-26 16:17 24.01142 -76.96971 32007 ft 418 kts 287°
2026-04-26 16:17 24.02896 -77.03027 32004 ft 417 kts 287°
2026-04-26 16:18 24.05518 -77.12101 32007 ft 417 kts 287°
2026-04-26 16:19 24.08134 -77.21177 32005 ft 417 kts 287°
2026-04-26 16:20 24.10744 -77.30252 32005 ft 416 kts 287°
2026-04-26 16:20 24.13345 -77.39322 32003 ft 416 kts 287°
2026-04-26 16:21 24.15076 -77.45367 32001 ft 416 kts 287°
2026-04-26 16:21 24.16792 -77.51370 31999 ft 416 kts 287°
2026-04-26 16:22 24.18516 -77.57415 32005 ft 416 kts 287°
2026-04-26 16:22 24.20305 -77.63432 32016 ft 415 kts 288°
2026-04-26 16:23 24.21934 -77.69491 32014 ft 415 kts 286°
2026-04-26 16:23 24.23644 -77.75530 32005 ft 415 kts 287°
2026-04-26 16:24 24.25378 -77.81562 31996 ft 415 kts 287°
2026-04-26 16:24 24.27182 -77.87568 31993 ft 416 kts 294°
2026-04-26 16:25 24.30376 -77.92850 31996 ft 416 kts 303°
2026-04-26 16:25 24.33644 -77.98093 31998 ft 416 kts 303°
2026-04-26 16:26 24.36331 -78.02466 31996 ft 416 kts 303°
2026-04-26 16:26 24.40104 -78.08624 32000 ft 416 kts 302°
2026-04-26 16:27 24.43310 -78.13863 32003 ft 416 kts 302°
2026-04-26 16:27 24.46532 -78.19129 31996 ft 416 kts 302°
2026-04-26 16:28 24.49753 -78.24398 32003 ft 415 kts 302°
2026-04-26 16:28 24.52968 -78.29665 32004 ft 415 kts 302°
2026-04-26 16:29 24.56183 -78.34936 32015 ft 415 kts 303°
2026-04-26 16:29 24.59400 -78.40218 32009 ft 417 kts 303°
2026-04-26 16:30 24.62627 -78.45519 32005 ft 418 kts 303°
2026-04-26 16:30 24.65859 -78.50837 32003 ft 419 kts 303°
2026-04-26 16:31 24.69097 -78.56169 32003 ft 420 kts 303°
2026-04-26 16:31 24.72337 -78.61511 32003 ft 420 kts 303°
2026-04-26 16:32 24.75030 -78.65956 32003 ft 420 kts 303°
2026-04-26 16:32 24.78821 -78.72219 31992 ft 421 kts 304°
2026-04-26 16:33 24.82067 -78.77582 32003 ft 421 kts 304°
2026-04-26 16:33 24.85314 -78.82952 32004 ft 421 kts 304°
2026-04-26 16:34 24.88538 -78.88291 31881 ft 424 kts 304°
2026-04-26 16:34 24.90176 -78.91007 31424 ft 423 kts 304°
2026-04-26 16:34 24.91796 -78.93693 30913 ft 419 kts 304°
2026-04-26 16:35 24.93398 -78.96353 30448 ft 414 kts 304°
2026-04-26 16:35 24.94985 -78.98987 29929 ft 411 kts 304°
2026-04-26 16:35 24.96557 -79.01601 29368 ft 407 kts 304°
2026-04-26 16:35 24.98113 -79.04187 28845 ft 403 kts 304°
2026-04-26 16:36 24.99648 -79.06741 28351 ft 397 kts 304°
2026-04-26 16:36 25.01168 -79.09269 27871 ft 393 kts 304°
2026-04-26 16:36 25.02668 -79.11766 27386 ft 389 kts 304°
2026-04-26 16:36 25.04159 -79.14249 26849 ft 387 kts 304°
2026-04-26 16:37 25.05637 -79.16711 26376 ft 384 kts 304°
2026-04-26 16:37 25.07104 -79.19157 25903 ft 381 kts 304°
2026-04-26 16:37 25.08557 -79.21582 25441 ft 378 kts 304°
2026-04-26 16:37 25.09514 -79.23178 25144 ft 376 kts 304°
2026-04-26 16:38 25.11433 -79.26383 24532 ft 372 kts 304°
2026-04-26 16:38 25.12856 -79.28761 24057 ft 371 kts 304°
2026-04-26 16:38 25.14274 -79.31131 23605 ft 369 kts 304°
2026-04-26 16:38 25.15682 -79.33487 23084 ft 367 kts 304°
2026-04-26 16:39 25.17063 -79.35798 22602 ft 364 kts 304°
2026-04-26 16:39 25.18471 -79.38154 22142 ft 361 kts 304°
2026-04-26 16:39 25.19826 -79.40423 21909 ft 354 kts 304°
2026-04-26 16:39 25.21179 -79.42691 21377 ft 355 kts 304°
2026-04-26 16:40 25.22541 -79.44973 20972 ft 357 kts 304°
2026-04-26 16:40 25.23913 -79.47273 20530 ft 359 kts 304°
2026-04-26 16:40 25.25280 -79.49568 20090 ft 356 kts 304°
2026-04-26 16:40 25.26639 -79.51850 19664 ft 354 kts 304°
2026-04-26 16:41 25.27988 -79.54116 19241 ft 352 kts 304°
2026-04-26 16:41 25.28894 -79.55639 18947 ft 351 kts 304°
2026-04-26 16:41 25.30233 -79.57890 18515 ft 350 kts 304°
2026-04-26 16:41 25.31548 -79.60101 18074 ft 348 kts 304°
2026-04-26 16:42 25.32874 -79.62334 17607 ft 346 kts 304°
2026-04-26 16:42 25.34189 -79.64548 17171 ft 344 kts 304°
2026-04-26 16:42 25.35496 -79.66749 16749 ft 341 kts 304°
2026-04-26 16:42 25.36792 -79.68934 16334 ft 338 kts 304°
2026-04-26 16:43 25.38078 -79.71101 15925 ft 336 kts 304°
2026-04-26 16:43 25.39360 -79.73247 15507 ft 334 kts 305°
2026-04-26 16:43 25.40689 -79.75341 15083 ft 332 kts 306°
2026-04-26 16:43 25.42034 -79.77407 14683 ft 330 kts 306°
2026-04-26 16:44 25.43370 -79.79461 14291 ft 328 kts 306°
2026-04-26 16:44 25.44692 -79.81505 13895 ft 326 kts 306°
2026-04-26 16:44 25.46001 -79.83540 13466 ft 324 kts 306°
2026-04-26 16:44 25.47301 -79.85566 13042 ft 322 kts 306°
2026-04-26 16:45 25.48590 -79.87578 12644 ft 319 kts 306°
2026-04-26 16:45 25.49869 -79.89575 12248 ft 317 kts 306°
2026-04-26 16:45 25.51138 -79.91556 11867 ft 315 kts 306°
2026-04-26 16:45 25.52401 -79.93529 11467 ft 313 kts 306°
2026-04-26 16:46 25.53654 -79.95488 11079 ft 311 kts 306°
2026-04-26 16:46 25.54887 -79.97417 10956 ft 303 kts 306°
2026-04-26 16:46 25.56091 -79.99299 10797 ft 295 kts 306°
2026-04-26 16:46 25.57260 -80.01129 10664 ft 286 kts 306°
2026-04-26 16:47 25.58393 -80.02902 10537 ft 278 kts 306°
2026-04-26 16:47 25.59507 -80.04646 10243 ft 277 kts 306°
2026-04-26 16:47 25.60588 -80.06340 10133 ft 269 kts 306°
2026-04-26 16:47 25.61667 -80.08030 9995 ft 262 kts 305°
2026-04-26 16:48 25.62703 -80.09653 9707 ft 261 kts 305°
2026-04-26 16:48 25.63750 -80.11296 9407 ft 260 kts 305°
2026-04-26 16:48 25.64797 -80.12937 9144 ft 262 kts 305°
2026-04-26 16:48 25.65804 -80.14633 8878 ft 265 kts 297°
2026-04-26 16:49 25.66597 -80.16483 8646 ft 267 kts 294°
2026-04-26 16:49 25.67368 -80.18352 8395 ft 266 kts 295°
2026-04-26 16:49 25.68175 -80.20188 8154 ft 265 kts 295°
2026-04-26 16:49 25.68930 -80.22048 7904 ft 264 kts 294°
2026-04-26 16:50 25.69689 -80.23902 7638 ft 265 kts 295°
2026-04-26 16:50 25.70464 -80.25757 7389 ft 265 kts 295°
2026-04-26 16:50 25.71160 -80.27648 7102 ft 265 kts 282°
2026-04-26 16:50 25.71157 -80.29681 6876 ft 264 kts 263°
2026-04-26 16:51 25.71024 -80.31713 6585 ft 264 kts 267°
2026-04-26 16:51 25.70940 -80.33727 6448 ft 255 kts 269°
2026-04-26 16:51 25.70922 -80.35622 6293 ft 244 kts 267°
2026-04-26 16:51 25.70826 -80.37479 6062 ft 236 kts 266°
2026-04-26 16:52 25.70724 -80.39271 5797 ft 230 kts 266°
2026-04-26 16:52 25.70651 -80.40432 5630 ft 226 kts 266°
2026-04-26 16:52 25.70520 -80.42734 5178 ft 221 kts 263°
2026-04-26 16:52 25.70411 -80.44421 4788 ft 218 kts 266°
2026-04-26 16:53 25.70354 -80.46091 4371 ft 216 kts 266°
2026-04-26 16:53 25.70351 -80.47753 3934 ft 216 kts 277°
2026-04-26 16:53 25.71069 -80.49184 3479 ft 222 kts 324°
2026-04-26 16:53 25.72506 -80.49750 3135 ft 224 kts 352°
2026-04-26 16:54 25.74006 -80.49935 2996 ft 209 kts 351°
2026-04-26 16:54 25.75387 -80.49965 2970 ft 192 kts 16°
2026-04-26 16:54 25.76424 -80.49174 2988 ft 180 kts 56°
2026-04-26 16:54 25.77062 -80.47955 3012 ft 186 kts 62°
2026-04-26 16:55 25.77683 -80.46668 2850 ft 191 kts 63°
2026-04-26 16:55 25.78288 -80.45397 2657 ft 178 kts 62°
2026-04-26 16:55 25.78858 -80.44219 2403 ft 166 kts 63°
2026-04-26 16:55 25.79412 -80.43103 2217 ft 165 kts 63°
2026-04-26 16:56 25.79446 -80.40746 1825 ft 155 kts 126°
2026-04-26 16:56 25.79185 -80.39629 1639 ft 159 kts 81°
2026-04-26 16:56 25.79468 -80.38419 1448 ft 163 kts 76°
2026-04-26 16:57 25.79748 -80.37187 1222 ft 164 kts 79°
2026-04-26 16:57 25.79873 -80.35959 1043 ft 159 kts 88°
2026-04-26 16:57 25.79917 -80.33495 684 ft 158 kts 87°
2026-04-26 16:58 25.79998 -80.32297 470 ft 154 kts 90°
2026-04-26 16:58 25.80014 -80.31518 322 ft 152 kts 92°
2026-04-26 16:58 25.80122 -80.28952 16 ft 110 kts 88°
2026-04-26 16:59 25.80140 -80.28433 14 ft 31 kts 88°
2026-04-26 16:59 25.80059 -80.28186 13 ft 0 kts 151°
2026-04-26 17:00 25.80058 -80.28186 13 ft 0 kts 151°
2026-04-26 17:00 25.79966 -80.28148 14 ft 14 kts 175°
2026-04-26 17:00 25.79895 -80.28197 14 ft 15 kts 264°
2026-04-26 17:01 25.79853 -80.28271 14 ft 8 kts 183°
2026-04-26 17:01 25.79833 -80.28270 14 ft 0 kts 177°
2026-04-26 17:01 25.79831 -80.28269 14 ft 0 kts 177°